Tracking 19572 objects as of 23-Feb-2019
HD Live streaming from Space Station
objects crossing your sky now

ASAP-S

Track ASAP-S now!
10-day predictions
ASAP-S is classified as:


NORAD ID: 38013
Int'l Code: 2011-076G
Perigee: 579.0 km
Apogee: 592.0 km
Inclination: 98.0 °
Period: 96.2 minutes
Semi major axis: 6956 km
RCS: 2.764 m2 (large)
Launch date: December 17, 2011
Source: France (FR)
Launch site: FRENCH GUIANA (FRGUI)
aabbcc
Your satellite tracking list
Your tracking list is empty




NASA's NSSDC Master Catalog

Two Line Element Set (TLE):
1 38013U 11076G   19053.92966641  .00000780  00000-0  74418-4 0  9994
2 38013  98.0209 193.1919 0009387 134.0774 226.1221 14.96289983391650
Source of the keplerian elements: AFSPC